カタログに戻る

STARLINK-35233

運用中通信VLEO
NORAD 65678·PAYLOAD·🇺🇸 United States

打ち上げ Sep 21, 2025 から Cape Canaveral Space Force Station

Loading…

次のパス (今後24時間)

TLE

最新Source: CelesTrak SupGP

元期: Sep 14, 2026, 23:09 UTC

1 65678C 25212C   26257.96506944 -.00039348  00000+0 -12649-2 0  2578
2 65678  53.1576 185.8551 0001412 102.8315 189.7383 15.31733118    15

AllMySatでSTARLINK-35233をリアルタイム追跡

Download on the App Store